[Date Prev][Date Next][Thread Prev][Thread Next] - [Date Index][Thread Index][Author Index]

2 Line ISS Keps 8-12



ISS
1 25544U 98067A   05223.81154382  .00013345  00000-0  10593-3 0  1241
2 25544 051.6462 336.1134 0001141 229.7797 272.0471 15.71630808384431
----
Via the sarex mailing list at AMSAT.ORG courtesy of AMSAT-NA.
To unsubscribe, send "unsubscribe sarex" to Majordomo@amsat.org



AMSAT Top AMSAT Home